Location: Poprad
(49.0500°N, 20.3000°E)
Time: 02:08:45
(UTC+01:00)

ISS - Pass Details

Date: 01 February 2021
Orbit: 417 x 422 km, 51.6° (Epoch: 06 March)

Event Time Altitude Azimuth Distance (km) Brightness Sun altitude
Rises 18:53:32 0° 289° (WNW) 2,376 1.3 -22.6°
Reaches altitude 10° 18:55:42 10° 282° (WNW) 1,509 0.1 -23.0°
Enters shadow 18:58:32 39° 231° (SW) 648 -2.5 -23.4°
